Hourly Weather Roundup
Issued by NWS Central Illinois

Home | Current Version | Previous Version | Text Only | Print | Product List | Glossary On
Versions: 1 2 3 4 5 6 7 8 9 10 11 12 13 14 15 16 17 18 19 20 21 22 23 24 25 26 27 28 29 30 31 32 33 34 35 36 37 38 39 40 41 42 43 44 45 46 47 48 49 50
000
NZUS43 KILX 071010
HWRILX

AREA WEATHER ROUNDUP
NATIONAL WEATHER SERVICE, LINCOLN IL
400 AM CST SUN FEB 07 2016


CITY           SKY/WX    TMP DP  RH WIND       PRES   REMARKS
BLOOMINGTON    CLOUDY    36  31  82 SW16      30.00F WCI  26
CHAMPAIGN      CLOUDY    36  29  75 S13       30.05F WCI  27
DANVILLE       CLOUDY    35  28  74 SW12      30.04F WCI  27
DECATUR        CLOUDY    37  28  70 SW14      30.05F WCI  28
EFFINGHAM      PTCLDY    37  26  62 S7        30.13F WCI  32
FLORA          CLEAR     38  25  59 SW7       30.14F WCI  32
GALESBURG      CLOUDY    37  30  78 S15       29.93F WCI  27
JACKSONVILLE   MOCLDY    41  31  68 S13       30.03F WCI  33
LACON          MOCLDY    38  28  68 SW10      29.95F WCI  31
LAWRENCEVILLE  CLEAR     33  23  66 SW5       30.14F WCI  29
LITCHFIELD     CLOUDY    35  26  68 S12       30.07F WCI  27
$$


CITY           SKY/WX    TMP DP  RH WIND       PRES   REMARKS
LINCOLN        CLOUDY    37  31  81 S6        30.02F WCI  32
MACOMB         PTCLDY    38  30  73 SW13      29.98F WCI  30
MATTOON        PTCLDY    38  23  55 SW9       30.09F WCI  31
MT CARMEL AP   CLEAR     34  23  64 SW8       30.14F WCI  27
OLNEY-NOBLE AP CLEAR     36  27  69 CALM      30.14F
PARIS          PTCLDY    35  28  75 SW10      30.10F WCI  27
PEORIA         PTCLDY    36  28  73 SW12      29.97F WCI  28
PONTIAC        PTCLDY    37  32  82 S13       29.98F WCI  29
RANTOUL        PTCLDY    38  31  77 SW9       30.03F WCI  31
ROBINSON       CLEAR     35  24  64 SW10      30.14F WCI  28
SPRINGFIELD    CLOUDY    39  30  70 S13       30.03F WCI  31
TAYLORVILLE    CLOUDY    36  28  75 S14       30.06F WCI  27
$$

...REGIONAL REPORTS...


CITY           SKY/WX    TMP DP  RH WIND       PRES   REMARKS
CHICAGO O`HARE CLOUDY    37  29  72 S14       29.92F WCI  28
KANKAKEE       PTCLDY    34  30  86 S8        30.00F WCI  27
MOLINE         PTCLDY    39  28  64 SW17G25   29.88F WCI  30
MOUNT STERLING PTCLDY    38  28  68 SW12      29.99F WCI  30
MOUNT VERNON   CLOUDY    32  21  64 SW5       30.15F WCI  27
PITTSFIELD     CLOUDY    39  31  72 S9        30.02F WCI  32
QUINCY         CLOUDY    38  28  67 SW15      29.99F WCI  29
ROCKFORD       CLOUDY    36  30  79 S12       29.90F WCI  28
$$


CITY           SKY/WX    TMP DP  RH WIND       PRES   REMARKS
BURLINGTON     PTCLDY    37  30  75 SW15      29.92F WCI  28
CEDAR RAPIDS   CLOUDY    36  30  79 SW10      29.83S WCI  28
DES MOINES     CLOUDY    36  27  69 W13       29.86F WCI  27
KIRKSVILLE     MOCLDY    39  27  62 SW14      29.94F WCI  31
OTTUMWA        CLOUDY    38  28  67 SW15      29.88F WCI  29
ST LOUIS       MOCLDY    43  20  39 S9        30.09F
$$


CITY           SKY/WX    TMP DP  RH WIND       PRES   REMARKS
TERRE HAUTE    CLEAR     37  23  56 SW8       30.11F WCI  31
EVANSVILLE     CLEAR     36  23  59 SW6       30.17F WCI  31
INDIANAPOLIS   CLEAR     35  23  61 SW12      30.09F WCI  27
LAFAYETTE      PTCLDY    34  24  67 CALM      30.06F
MADISON        CLOUDY    36  29  75 SW10G23   29.79F WCI  28
MILWAUKEE      CLOUDY    35  29  78 S8        29.85F WCI  29
$$





USA.gov is the U.S. government's official web portal to all federal, state and local government web resources and services.